Barcelona, Spain

3:12 PM CET on February 22, 2017 (GMT +0100)
Barcelona

Weather History for 08181 - May, 2013

Change the Weather History Date:

Wednesday, May 29, 2013

  Actual Average Record
Temperature  
Mean Temperature 63 °F -  
Max Temperature 72 °F 75 °F - ()
Min Temperature 54 °F 63 °F - ()
Degree Days  
Heating Degree Days 2    
Growing Degree Days 13 (Base 50)    
Moisture  
Dew Point 42 °F    
Average Humidity 52    
Maximum Humidity 82    
Minimum Humidity 15    
Precipitation  
Precipitation 0.00 in 0.05 in - ()
Sea Level Pressure  
Sea Level Pressure 29.80 in    
Wind  
Wind Speed 9 mph ()    
Max Wind Speed 28 mph    
Max Gust Speed 39 mph    
Visibility 7.1 miles    
Events      
T = Trace of Precipitation, MM = Missing Value Source: Averaged Metar Reports

Daily Weather History Graph

Daily Weather History Graph

Search for Another Location

Airport or City:

Trip Planner

Search our weather history database for the weather conditions in past years. The results will help you decide how hot, cold, wet, or windy it might be!

Date:

Astronomy

May. 29, 2013 Rise Set
Actual Time 6:22 AM CEST 9:16 PM CEST
Civil Twilight 5:49 AM CEST 9:49 PM CEST
Nautical Twilight 5:08 AM CEST 10:30 PM CEST
Astronomical Twilight 4:20 AM CEST 11:19 PM CEST
Moon 12:27 AM CEST (5/29) 11:05 AM CEST (5/29)
Length of Visible Light 15h 59m
Length of Day
14h 53m
Waning Gibbous, 76% of the Moon is Illuminated
May 29
Waning Gibbous
May 31
Last Quarter
Jun 8
New
Jun 16
First Quarter
Jun 23
Full

Hourly Weather History & Observations

Time (CEST) Temp. Dew Point Humidity Pressure Visibility Wind Dir Wind Speed Gust Speed Precip Events Conditions
12:00 AM 59.0 °F 51.8 °F 77% 29.86 in 6.2 mi East 4.6 mph - N/A   Scattered Clouds
12:30 AM 59.0 °F 50.0 °F 72% 29.86 in 6.2 mi NW 5.8 mph - N/A   Scattered Clouds
1:00 AM 59.0 °F 50.0 °F 72% 29.86 in 6.2 mi Variable 1.2 mph - N/A   Scattered Clouds
1:30 AM 59.0 °F 50.0 °F 72% 29.86 in 6.2 mi SE 4.6 mph - N/A   Scattered Clouds
2:00 AM 57 °F 48 °F 65% 29.86 in 19 mi NW 3.5 mph - -   Scattered Clouds
2:00 AM 57.2 °F 50.0 °F 77% 29.86 in 6.2 mi Calm Calm - N/A   Scattered Clouds
2:30 AM 57.2 °F 51.8 °F 82% 29.86 in 6.2 mi Calm Calm - N/A   Partly Cloudy
3:00 AM 57.2 °F 50.0 °F 77% 29.83 in 6.2 mi Calm Calm - N/A   Scattered Clouds
3:30 AM 57.2 °F 50.0 °F 77% 29.83 in 6.2 mi WSW 2.3 mph - N/A   Scattered Clouds
4:00 AM 57.2 °F 50.0 °F 77% 29.83 in 6.2 mi North 4.6 mph - N/A   Scattered Clouds
4:30 AM 55.4 °F 50.0 °F 82% 29.80 in 6.2 mi WNW 4.6 mph - N/A   Scattered Clouds
5:00 AM 55.4 °F 50.0 °F 82% 29.80 in 6.2 mi NW 9.2 mph - N/A   Scattered Clouds
5:30 AM 55.4 °F 50.0 °F 82% 29.80 in 6.2 mi NNW 9.2 mph - N/A   Scattered Clouds
6:00 AM 55.4 °F 44.6 °F 67% 29.80 in 6.2 mi NW 9.2 mph - N/A   Scattered Clouds
6:30 AM 55.4 °F 41.0 °F 58% 29.80 in 6.2 mi NW 11.5 mph - N/A   Scattered Clouds
7:00 AM 55.4 °F 39.2 °F 54% 29.80 in 6.2 mi NNW 8.1 mph - N/A   Scattered Clouds
7:30 AM 55.4 °F 39.2 °F 54% 29.80 in 6.2 mi NNW 9.2 mph - N/A   Partly Cloudy
8:00 AM 56 °F 38 °F 39% 29.83 in 19 mi NNW 8.1 mph - -   Scattered Clouds
8:00 AM 55.4 °F 39.2 °F 54% 29.80 in 6.2 mi North 8.1 mph - N/A   Partly Cloudy
8:30 AM 55.4 °F 39.2 °F 54% 29.80 in 6.2 mi NNW 10.4 mph - N/A   Partly Cloudy
9:00 AM 57.2 °F 39.2 °F 51% 29.80 in 6.2 mi North 8.1 mph - N/A   Partly Cloudy
9:30 AM 57.2 °F 39.2 °F 51% 29.80 in 6.2 mi NNW 6.9 mph - N/A   Partly Cloudy
10:00 AM 60.8 °F 39.2 °F 45% 29.80 in 6.2 mi NNW 4.6 mph - N/A   Partly Cloudy
10:30 AM 62.6 °F 35.6 °F 37% 29.80 in 6.2 mi South 5.8 mph - N/A   Partly Cloudy
11:00 AM 66.2 °F 33.8 °F 30% 29.80 in 6.2 mi WSW 17.3 mph - N/A   Partly Cloudy
11:30 AM 68.0 °F 35.6 °F 30% 29.77 in 6.2 mi West 16.1 mph 27.6 mph N/A   Partly Cloudy
12:00 PM 68.0 °F 33.8 °F 28% 29.77 in 6.2 mi West 16.1 mph - N/A   Partly Cloudy
12:30 PM 68.0 °F 32.0 °F 26% 29.77 in 6.2 mi West 18.4 mph - N/A   Partly Cloudy
1:00 PM 69.8 °F 32.0 °F 25% 29.77 in 6.2 mi WNW 20.7 mph - N/A   Partly Cloudy
1:30 PM 68.0 °F 33.8 °F 28% 29.77 in 6.2 mi West 21.9 mph - N/A   Partly Cloudy
2:00 PM 69 °F 33 °F 15% 29.77 in 17 mi West 23.0 mph - -   Scattered Clouds
2:00 PM 69.8 °F 33.8 °F 27% 29.77 in 6.2 mi WNW 18.4 mph 29.9 mph N/A   Partly Cloudy
2:30 PM 69.8 °F 33.8 °F 27% 29.74 in 6.2 mi West 21.9 mph 33.4 mph N/A   Partly Cloudy
3:00 PM 69.8 °F 33.8 °F 27% 29.74 in 6.2 mi West 21.9 mph - N/A   Partly Cloudy
3:30 PM 69.8 °F 33.8 °F 27% 29.74 in 6.2 mi West 21.9 mph - N/A   Partly Cloudy
4:00 PM 69.8 °F 33.8 °F 27% 29.74 in 6.2 mi West 23.0 mph 36.8 mph N/A   Partly Cloudy
4:30 PM 69.8 °F 33.8 °F 27% 29.74 in 6.2 mi West 21.9 mph 33.4 mph N/A   Partly Cloudy
5:00 PM 71.6 °F 32.0 °F 23% 29.74 in 6.2 mi West 27.6 mph 39.1 mph N/A   Partly Cloudy
5:30 PM 71.6 °F 32.0 °F 23% 29.74 in 6.2 mi WNW 20.7 mph 34.5 mph N/A   Partly Cloudy
6:00 PM 71.6 °F 33.8 °F 25% 29.74 in 6.2 mi West 21.9 mph - N/A   Partly Cloudy
6:30 PM 71.6 °F 32.0 °F 23% 29.74 in 6.2 mi NW 15.0 mph - N/A   Partly Cloudy
7:00 PM 71.6 °F 30.2 °F 22% 29.77 in 6.2 mi East 19.6 mph - N/A   Partly Cloudy
7:30 PM 60.8 °F 50.0 °F 68% 29.80 in 6.2 mi East 16.1 mph - N/A   Partly Cloudy
8:00 PM 60 °F 48 °F 54% 29.81 in 16 mi East 13.8 mph - -   Scattered Clouds
8:00 PM 60.8 °F 50.0 °F 68% 29.80 in 6.2 mi East 11.5 mph - N/A   Partly Cloudy
8:30 PM 60.8 °F 50.0 °F 68% 29.80 in 6.2 mi ENE 15.0 mph - N/A   Partly Cloudy
9:00 PM 59.0 °F 48.2 °F 67% 29.83 in 6.2 mi East 11.5 mph - N/A   Partly Cloudy
9:30 PM 59.0 °F 50.0 °F 72% 29.83 in 6.2 mi East 9.2 mph - N/A   Partly Cloudy
10:00 PM 59.0 °F 50.0 °F 72% 29.83 in 6.2 mi East 8.1 mph - N/A   Partly Cloudy
10:30 PM 59.0 °F 50.0 °F 72% 29.86 in 6.2 mi ENE 8.1 mph - N/A   Partly Cloudy
11:00 PM 59.0 °F 48.2 °F 67% 29.86 in 6.2 mi East 5.8 mph - N/A   Partly Cloudy
11:30 PM 59.0 °F 48.2 °F 67% 29.86 in 6.2 mi East 5.8 mph - N/A   Partly Cloudy